Weather History for KAVK - April, 2013

Change the Weather History Date:

Friday, April 19, 2013

  Actual Average Record
Temperature  
Mean Temperature 45 °F -  
Max Temperature 66 °F 73 °F 95 °F (1961)
Min Temperature 24 °F 48 °F 24 °F (2013)
Degree Days  
Heating Degree Days 20    
Moisture  
Dew Point 27 °F    
Average Humidity 54    
Maximum Humidity 93    
Minimum Humidity 21    
Precipitation  
Precipitation 0.00 in - - ()
Sea Level Pressure  
Sea Level Pressure 30.10 in    
Wind  
Wind Speed 10 mph (WNW)    
Max Wind Speed 21 mph    
Max Gust Speed 28 mph    
Visibility 10 miles    
Events      
Averages and records for this station are not official NWS values.
T = Trace of Precipitation, MM = Missing Value Source: NWS Daily Summary

Daily Weather History Graph

Daily Weather History Graph

Search for Another Location

Airport or City:

Trip Planner

Search our weather history database for the weather conditions in past years. The results will help you decide how hot, cold, wet, or windy it might be!

Date:

Astronomy

Apr. 19, 2013 Rise Set
Actual Time 6:55 AM CDT 8:12 PM CDT
Civil Twilight 6:28 AM CDT 8:40 PM CDT
Nautical Twilight 5:55 AM CDT 9:12 PM CDT
Astronomical Twilight 5:22 AM CDT 9:46 PM CDT
Moon 2:08 PM CDT (4/19) 3:01 AM CDT (4/19)
Length of Visible Light 14h 11m
Length of Day
13h 17m
First Quarter, 62% of the Moon is Illuminated
Apr 19
First Quarter
Apr 25
Full
May 2
Last Quarter
May 9
New
May 17
First Quarter

Hourly Weather History & Observations

Time (CDT) Temp. Windchill Dew Point Humidity Pressure Visibility Wind Dir Wind Speed Gust Speed Precip Events Conditions
12:05 AM 28.4 °F 20.4 °F 24.8 °F 86% 30.14 in 10.0 mi WNW 8.1 mph - N/A   Partly Cloudy
12:20 AM 30.2 °F 22.6 °F 24.8 °F 80% 30.14 in 10.0 mi WNW 8.1 mph - N/A   Clear
12:40 AM 28.4 °F 20.4 °F 24.8 °F 86% 30.15 in 10.0 mi WNW 8.1 mph - N/A   Partly Cloudy
1:00 AM 30.2 °F 21.9 °F 24.8 °F 80% 30.15 in 10.0 mi WNW 9.2 mph - N/A   Scattered Clouds
1:20 AM 32.0 °F 23.0 °F 24.8 °F 75% 30.15 in 10.0 mi NW 11.5 mph - N/A   Scattered Clouds
1:40 AM 32.0 °F 23.0 °F 24.8 °F 75% 30.16 in 10.0 mi NW 11.5 mph - N/A   Partly Cloudy
2:00 AM 32.0 °F 23.0 °F 24.8 °F 75% 30.15 in 10.0 mi NW 11.5 mph 18.4 mph N/A   Clear
2:20 AM 32.0 °F 23.6 °F 24.8 °F 75% 30.15 in 10.0 mi WNW 10.4 mph - N/A   Clear
2:40 AM 30.2 °F 21.3 °F 24.8 °F 80% 30.14 in 10.0 mi NW 10.4 mph - N/A   Clear
3:00 AM 30.2 °F 21.3 °F 24.8 °F 80% 30.14 in 10.0 mi WNW 10.4 mph - N/A   Clear
3:20 AM 30.2 °F 20.8 °F 24.8 °F 80% 30.15 in 10.0 mi WNW 11.5 mph - N/A   Clear
3:40 AM 28.4 °F 20.4 °F 24.8 °F 86% 30.15 in 10.0 mi WNW 8.1 mph - N/A   Clear
4:00 AM 28.4 °F 19.1 °F 24.8 °F 86% 30.15 in 10.0 mi WNW 10.4 mph - N/A   Partly Cloudy
4:20 AM 28.4 °F 19.7 °F 24.8 °F 86% 30.15 in 10.0 mi WNW 9.2 mph - N/A   Partly Cloudy
4:40 AM 28.4 °F 19.7 °F 24.8 °F 86% 30.15 in 10.0 mi WNW 9.2 mph - N/A   Clear
5:00 AM 28.4 °F 19.7 °F 24.8 °F 86% 30.15 in 10.0 mi WNW 9.2 mph - N/A   Clear
5:20 AM 28.4 °F 20.4 °F 23.0 °F 80% 30.15 in 10.0 mi West 8.1 mph - N/A   Clear
5:40 AM 26.6 °F 20.0 °F 23.0 °F 86% 30.16 in 10.0 mi West 5.8 mph - N/A   Clear
6:00 AM 24.8 °F 16.1 °F 23.0 °F 93% 30.16 in 10.0 mi West 8.1 mph - N/A   Clear
6:20 AM 24.8 °F 16.9 °F 23.0 °F 93% 30.16 in 10.0 mi West 6.9 mph - N/A   Clear
6:40 AM 24.8 °F 17.9 °F 23.0 °F 93% 30.17 in 10.0 mi West 5.8 mph - N/A   Clear
7:00 AM 24.8 °F 16.9 °F 23.0 °F 93% 30.17 in 10.0 mi West 6.9 mph - N/A   Clear
7:20 AM 26.6 °F 20.0 °F 23.0 °F 86% 30.17 in 10.0 mi West 5.8 mph - N/A   Clear
7:40 AM 28.4 °F 21.2 °F 24.8 °F 86% 30.18 in 10.0 mi West 6.9 mph - N/A   Clear
8:00 AM 30.2 °F 24.3 °F 26.6 °F 86% 30.18 in 10.0 mi West 5.8 mph - N/A   Clear
8:40 AM 37.4 °F 32.8 °F 24.8 °F 60% 30.17 in 10.0 mi West 5.8 mph - N/A   Clear
9:00 AM 39.2 °F 35.0 °F 24.8 °F 56% 30.17 in 10.0 mi West 5.8 mph - N/A   Clear
9:20 AM 41.0 °F 37.1 °F 26.6 °F 57% 30.16 in 10.0 mi WSW 5.8 mph - N/A   Clear
9:45 AM 44.6 °F 40.2 °F 26.6 °F 49% 30.16 in 10.0 mi West 8.1 mph - N/A   Clear
10:00 AM 44.6 °F 40.2 °F 24.8 °F 46% 30.16 in 10.0 mi West 8.1 mph - N/A   Clear
10:20 AM 46.4 °F 41.5 °F 26.6 °F 46% 30.16 in 10.0 mi WSW 10.4 mph - N/A   Clear
10:40 AM 46.4 °F 41.9 °F 28.4 °F 50% 30.16 in 10.0 mi West 9.2 mph - N/A   Clear
11:05 AM 48.2 °F - 26.6 °F 43% 30.15 in 10.0 mi West 12.7 mph 17.3 mph N/A   Clear
11:20 AM 50.0 °F - 26.6 °F 40% 30.15 in 10.0 mi West 15.0 mph 19.6 mph N/A   Clear
11:40 AM 53.6 °F - 28.4 °F 38% 30.14 in 10.0 mi West 12.7 mph 19.6 mph N/A   Clear
12:00 PM 53.6 °F - 28.4 °F 38% 30.13 in 10.0 mi West 15.0 mph 20.7 mph N/A   Clear
12:20 PM 55.4 °F - 26.6 °F 33% 30.13 in 10.0 mi WNW 10.4 mph 18.4 mph N/A   Clear
12:40 PM 57.2 °F - 26.6 °F 31% 30.12 in 10.0 mi West 12.7 mph 18.4 mph N/A   Clear
1:00 PM 59.0 °F - 26.6 °F 29% 30.10 in 10.0 mi West 15.0 mph 26.5 mph N/A   Clear
1:20 PM 59.0 °F - 28.4 °F 31% 30.10 in 10.0 mi West 12.7 mph 20.7 mph N/A   Clear
1:40 PM 60.8 °F - 26.6 °F 27% 30.09 in 10.0 mi WNW 12.7 mph 23.0 mph N/A   Clear
2:05 PM 60.8 °F - 28.4 °F 29% 30.08 in 10.0 mi WNW 16.1 mph 24.2 mph N/A   Clear
2:20 PM 62.6 °F - 28.4 °F 27% 30.07 in 10.0 mi West 13.8 mph 23.0 mph N/A   Clear
2:45 PM 64.4 °F - 28.4 °F 26% 30.06 in 10.0 mi WNW 20.7 mph 27.6 mph N/A   Partly Cloudy
3:00 PM 64.4 °F - 26.6 °F 24% 30.06 in 10.0 mi WNW 12.7 mph 25.3 mph N/A   Partly Cloudy
3:20 PM 64.4 °F - 26.6 °F 24% 30.05 in 10.0 mi WNW 13.8 mph 25.3 mph N/A   Clear
3:40 PM 64.4 °F - 24.8 °F 22% 30.04 in 10.0 mi NW 16.1 mph 26.5 mph N/A   Partly Cloudy
4:00 PM 66.2 °F - 24.8 °F 21% 30.03 in 10.0 mi West 13.8 mph 23.0 mph N/A   Partly Cloudy
4:20 PM 66.2 °F - 26.6 °F 23% 30.03 in 10.0 mi WNW 17.3 mph 25.3 mph N/A   Partly Cloudy
4:45 PM 66.2 °F - 26.6 °F 23% 30.02 in 10.0 mi NNW 10.4 mph - N/A   Partly Cloudy
5:00 PM 66.2 °F - 26.6 °F 23% 30.02 in 10.0 mi NW 16.1 mph 26.5 mph N/A   Scattered Clouds
5:20 PM 66.2 °F - 24.8 °F 21% 30.01 in 10.0 mi WNW 10.4 mph - N/A   Scattered Clouds
5:40 PM 66.2 °F - 26.6 °F 23% 30.01 in 10.0 mi NW 10.4 mph 19.6 mph N/A   Mostly Cloudy
6:05 PM 64.4 °F - 28.4 °F 26% 30.01 in 10.0 mi NW 10.4 mph 20.7 mph N/A   Scattered Clouds
6:20 PM 64.4 °F - 26.6 °F 24% 30.01 in 10.0 mi NNW 9.2 mph - N/A   Mostly Cloudy
6:40 PM 62.6 °F - 28.4 °F 27% 30.01 in 10.0 mi NW 5.8 mph - N/A   Overcast
7:00 PM 60.8 °F - 30.2 °F 31% 30.01 in 10.0 mi NNW 4.6 mph - N/A   Overcast
7:20 PM 59.0 °F - 32.0 °F 36% 30.02 in 10.0 mi NNW 4.6 mph - N/A   Overcast
7:40 PM 60.8 °F - 32.0 °F 34% 30.01 in 10.0 mi North 4.6 mph - N/A   Overcast
8:00 PM 60.8 °F - 26.6 °F 27% 30.02 in 10.0 mi NE 4.6 mph - N/A   Scattered Clouds
8:20 PM 57.2 °F - 28.4 °F 33% 30.02 in 10.0 mi ENE 5.8 mph - N/A   Clear
8:40 PM 55.4 °F - 30.2 °F 38% 30.03 in 10.0 mi East 6.9 mph - N/A   Clear
9:00 PM 53.6 °F - 32.0 °F 44% 30.03 in 10.0 mi East 8.1 mph - N/A   Clear
9:20 PM 50.0 °F - 33.8 °F 54% 30.04 in 10.0 mi ESE 8.1 mph - N/A   Clear
9:40 PM 50.0 °F - 32.0 °F 50% 30.04 in 10.0 mi ESE 9.2 mph - N/A   Clear
10:00 PM 48.2 °F - 32.0 °F 54% 30.05 in 10.0 mi ESE 10.4 mph - N/A   Clear
10:20 PM 48.2 °F - 32.0 °F 54% 30.05 in 10.0 mi ESE 10.4 mph - N/A   Clear
10:40 PM 48.2 °F - 32.0 °F 54% 30.05 in 10.0 mi ESE 10.4 mph - N/A   Clear
11:00 PM 46.4 °F 41.5 °F 32.0 °F 57% 30.05 in 10.0 mi ESE 10.4 mph - N/A   Partly Cloudy
11:20 PM 46.4 °F 41.9 °F 32.0 °F 57% 30.05 in 10.0 mi ESE 9.2 mph - N/A   Clear
11:40 PM 46.4 °F 41.9 °F 33.8 °F 62% 30.05 in 10.0 mi ESE 9.2 mph - N/A   Clear